SCP
0 0 0 0 0 0 0 0 0 0 0 0 0 0 0 0 0 0 0 0 0 0 0 0 0 0 0 0 0 0 0 0 0 0 0 0 0 0 0 0 0 0 0
0 0 0 0 0 0 0 0 0 0 0 0 0 0 0 0 0 0 0 0 0 0 0 0 0 0 0 0 0 0 0 0 0 0 0 0 0 0 0 0 0 0 0
0 0 0 0 0 0 0 0 0 0 0 0 0 0 0 0 0 0 0 0 0 0 0 0 0 0 0 0 0 0 0 0 0 0 0 0 0 0 0 0 0 0 0
0 0 0 0 0 0 0 0 0 0 0 0 0 0 0 0 0 0 0 0 0 0 0 0 0 0 0 0 0 0 0 0 0 0 0 0 0 0 0 0 0 0 0
0 0 0 0 0 0 0 0 0 0 0 0 0 0 0 0 0 0 0 0 0 0 0 0 0 0 0 0 0 0 0 0 0 0 0 0 0 0 0 0 0 0 0
0 0 0 0 0 0 0 0 0 0 0 0 0 0 0 0 0 0 0 0 0 0 0 0 0 0 0 0 0 0 0 0 0 0 0 0 0 0 0 0 0 0 0
0 0 0 0 0 0 0 0 0 0 0 0 0 0 0 0 0 0 0 0 0 0 0 0 0 0 0 0 0 0 0 0 0 0 0 0 0 0 0 0 0 0 0
0 0 0 0 0 0 0 0 0 0 0 0 0 0 0 0 0 0 0 0 0 0 0 0 0 0 0 0 0 0 0 0 0 0 0 0 0 0 0 0 0 0 0
0 0 0 0 0 0 0 0 0 0 0 0 0 0 0 0 0 0 0 0 0 0 0 0 0 0 0 0 0 0 0 0 0 0 0 0 0 0 0 0 0 0 0
0 0 0 0 0 0 0 0 0 0 0 0 0 0 0 0 0 0 0 0 0 0 0 0 0 0 0 0 0 0 0 0 0 0 0 0 0 0 0 0 0 0 0
0 0 0 0 0 0 0 0 0 0 0 0 0 0 0 0 0 0 0 0 0 0 0 0 0 0 0 0 0 0 0 0 0 0 0 0 0 0 0 0 0 0 0
0 0 0 0 0 0 0 0 0 0 0 0 0 0 0 0 0 0 0 0 0 0 0 0 0 0 0 0 0 0 0 0 0 0 0 0 0 0 0 0 0 0 0
0 0 0 0 0 0 0 0 0 0 0 0 0 0 0 0 0 0 0 0 0 0 0 0 0 0 0 0 0 0 0 0 0 0 0 0 0 0 0 0 0 0 0
0 0 0 0 0 0 0 0 0 0 0 0 0 0 0 0 0 0 0 0 0 0 0 0 0 0 0 0 0 0 0 0 0 0 0 0 0 0 0 0 0 0 0
0 0 0 0 0 0 0 0 0 0 0 0 0 0 0 0 0 0 0 0 0 0 0 0 0 0 0 0 0 0 0 0 0 0 0 0 0 0 0 0 0 0 0
0 0 0 0 0 0 0 0 0 0 0 0 0 0 0 0 0 0 0 0 0 0 0 0 0 0 0 0 0 0 0 0 0 0 0 0 0 0 0 0 0 0 0
0 0 0 0 0 0 0 0 0 0 0 0 0 0 0 0 0 0 0 0 0 0 0 0 0 0 0 0 0 0 0 0 0 0 0 0 0 0 0 0 0 0 0
0 0 0 0 0 0 0 0 0 0 0 0 0 0 0 0 0 0 0 0 0 0 0 0 0 0 0 0 0 0 0 0 0 0 0 0 0 0 0 0 0 0 0
0 0 0 0 0 0 0 0 0 0 0 0 0 0 0 0 0 0 0 0 0 0 0 0 0 0 0 0 0 0 0 0 0 0 0 0 0 0 0 0 0 0 0
0 0 0 0 0 0 0 0 0 0 0 0 0 0 0 0 0 0 0 0 0 0 0 0 0 0 0 0 0 0 0 0 0 0 0 0 0 0 0 0 0 0 0
0 0 0 0 0 0 0 0 0 0 0 0 0 0 0 0 0 0 0 0 0 0 0 0 0 0 0 0 0 0 0 0 0 0 0 0 0 0 0 0 0 0 0
0 0 0 0 0 0 0 0 0 0 0 0 0 0 0 0 0 0 0 0 0 0 0 0 0 0 0 0 0 0 0 0 0 0 0 0 0 0 0 0 0 0 0
0 0 0 0 0 0 0 0 0 0 0 0 0 0 0 0 0 0 0 0 0 0 0 0 0 0 0 0 0 0 0 0 0 0 0 0 0 0 0 0 0 0 0
0 0 0 0 0 0 0 0 0 0 0 0 0 0 0 0 0 0 0 0 0 0 0 0 0 0 0 0 0 0 0 0 0 0 0 0 0 0 0 0 0 0 0
0 0 0 0 0 0 0 0 0 0 0 0 0 0 0 0 0 0 0 0 0 0 0 0 0 0 0 0 0 0 0 0 0 0 0 0 0 0 0 0 0 0 0
0 0 0 0 0 0 0 0 0 0 0 0 0 0 0 0 0 0 0 0 0 0 0 0 0 0 0 0 0 0 0 0 0 0 0 0 0 0 0 0 0 0 0
Wind_Speed
3 3 4 4 6 7 7 7 7 8 9 9 9 10 10 10 10 11 11 12 12 12 12 13 13 13 13 13 13 13 12 13 13 13 13 13 13 14 14 14 12 10 15
3 4 4 5 6 7 7 7 8 8 8 9 9 10 10 10 10 10 11 11 12 12 12 12 13 13 13 13 13 12 12 12 11 11 11 11 12 13 14 14 12 10 15
4 5 4 6 7 7 8 8 8 8 8 8 9 9 10 10 10 10 11 11 11 12 12 12 12 13 13 13 12 11 11 11 10 9 8 6 8 13 14 13 14 14 14
4 5 5 7 8 8 8 9 9 8 8 8 8 9 9 10 10 10 11 11 11 11 12 12 12 13 12 12 11 11 10 9 9 8 5 6 6 12 13 13 14 14 14
5 5 6 7 8 8 9 9 9 9 8 8 8 9 9 10 10 10 11 11 11 11 11 12 12 12 12 12 11 11 10 10 9 7 5 6 5 11 12 13 13 13 13
5 6 6 7 7 8 9 9 9 8 8 7 8 8 9 9 10 10 10 11 11 12 12 12 12 12 12 12 11 11 11 10 7 5 5 6 5 10 12 12 12 12 13
5 5 5 7 8 8 8 9 8 9 9 8 8 8 8 9 9 10 10 10 11 11 12 12 12 12 12 11 11 10 10 9 6 5 5 5 6 10 11 11 12 12 13
5 5 5 7 7 8 8 8 8 8 9 9 8 8 8 8 9 10 10 10 10 11 11 11 12 11 11 11 11 10 10 8 6 6 5 5 8 10 11 11 11 11 12
5 5 5 4 5 7 8 8 8 9 9 9 9 8 8 8 8 9 9 10 10 10 10 11 11 11 10 10 10 10 10 9 6 4 6 5 8 10 10 10 11 11 12
5 5 4 4 4 4 4 7 8 8 8 9 8 7 6 7 7 8 8 9 9 9 10 10 10 10 9 9 9 9 9 7 6 6 4 6 9 10 10 10 10 11 11
5 4 4 4 4 3 3 4 5 7 7 7 6 7 5 3 3 4 7 8 8 9 9 9 9 9 9 8 8 8 7 4 5 5 4 8 10 10 10 10 10 10 11
3 3 4 4 4 3 3 3 2 3 3 3 3 4 3 2 3 5 6 8 8 8 8 8 8 7 6 3 5 6 4 5 4 4 5 10 10 10 10 10 9 9 10
3 3 3 3 3 3 2 2 2 2 2 2 3 3 3 3 2 3 2 3 4 5 4 4 4 3 3 3 3 4 4 4 3 3 5 9 9 9 9 9 9 9 9
4 3 3 3 3 3 2 2 2 2 2 2 3 3 2 2 2 2 2 2 2 2 2 3 2 3 4 4 4 4 5 3 3 3 4 8 8 8 8 8 8 8 8
3 3 3 3 3 3 3 2 2 2 2 2 2 2 3 2 2 2 2 2 2 2 2 2 3 3 4 4 4 5 5 4 4 4 3 7 7 8 7 8 8 8 7
3 2 2 2 2 2 2 2 1 2 2 2 2 2 3 2 2 2 2 2 2 2 2 2 3 3 3 3 4 4 4 3 3 4 3 4 6 7 7 7 6 6 6
2 2 2 2 2 2 2 2 2 1 2 2 2 2 3 3 2 2 2 2 2 2 2 3 3 3 3 3 4 4 3 3 3 3 3 2 3 5 6 6 5 5 4
3 2 2 2 2 2 2 1 1 1 2 2 2 2 3 3 3 2 2 2 2 2 2 2 2 2 2 3 3 3 3 2 3 3 2 2 2 2 3 5 5 4 4
3 3 2 2 2 2 2 1 1 2 2 2 2 2 3 3 3 3 2 1 2 2 2 2 2 2 2 2 2 2 2 2 2 2 3 2 2 2 2 3 4 3 3
3 3 3 3 2 2 1 1 1 2 2 2 2 2 3 2 2 3 2 2 2 2 2 2 2 2 2 2 2 2 2 2 2 1 1 2 2 2 2 2 1 2 2
3 3 3 3 2 2 1 1 1 1 1 1 2 2 3 2 2 3 2 2 2 2 1 2 2 3 2 2 2 2 2 2 1 1 1 1 1 1 1 1 1 1 1
3 3 3 3 3 2 1 1 1 1 1 1 1 2 2 2 2 2 2 2 1 2 2 2 2 2 1 1 1 1 0 1 2 2 1 1 1 1 1 1 1 0 0
3 3 3 3 2 2 2 1 1 1 1 1 1 1 2 2 2 2 2 2 2 2 2 2 1 2 1 0 0 2 2 2 1 1 1 0 1 1 0 0 0 0 0
3 3 3 3 2 2 3 2 2 1 2 1 1 1 1 1 1 1 1 2 2 2 2 2 1 0 2 2 0 1 0 1 1 1 1 1 1 1 1 1 1 1 1
3 2 2 3 2 2 2 3 2 1 1 1 1 2 2 1 1 1 1 1 1 1 2 2 1 0 1 1 1 0 0 1 1 2 2 2 2 1 1 1 1 1 1
3 2 2 2 2 2 2 2 2 2 2 2 2 2 2 1 1 1 1 1 1 1 1 1 1 1 1 1 1 1 1 1 1 1 1 2 2 2 2 2 2 2 2
Wind_Direction
78 79 48 51 60 60 67 75 83 82 76 75 73 71 70 67 63 60 59 57 56 56 58 59 62 67 68 67 70 70 68 68 69 69 69 70 76 78 79 79 77 77 82
97 94 61 65 67 65 68 70 82 83 77 74 71 72 71 69 64 60 61 61 58 59 59 61 64 66 66 66 68 68 67 65 65 67 68 66 70 76 79 76 76 80 83
86 92 85 68 68 67 70 68 74 82 78 75 72 72 71 70 66 62 62 62 61 62 62 63 65 67 67 67 66 67 66 60 54 60 66 70 71 75 79 79 80 82 83
89 95 86 72 74 71 69 69 69 77 79 75 72 72 72 71 68 65 63 63 62 62 63 65 67 67 68 68 65 64 63 54 46 49 62 71 74 77 81 83 84 84 84
89 89 88 78 80 77 71 68 70 72 78 77 74 74 73 72 71 68 66 63 62 63 67 69 69 68 67 64 63 61 56 46 44 48 54 67 71 81 82 83 85 84 83
81 84 89 78 78 77 75 72 70 73 76 77 75 75 74 74 74 72 68 65 63 66 71 72 71 69 66 63 59 54 47 39 43 49 58 63 69 83 86 85 84 84 82
72 78 92 79 77 76 78 74 70 71 73 74 75 77 76 74 74 72 69 66 66 67 69 72 74 72 67 62 57 50 42 35 38 50 62 62 72 87 89 87 86 86 84
72 72 85 75 75 73 74 74 71 72 71 70 70 74 77 74 73 71 67 66 66 69 69 70 72 73 68 62 54 45 36 31 42 62 68 68 75 84 89 88 86 86 86
75 74 74 70 67 67 68 68 70 69 68 67 67 68 70 76 75 72 67 65 65 68 70 70 71 68 67 62 54 46 39 33 34 61 76 73 76 82 88 89 88 87 86
71 67 70 66 64 65 68 67 67 69 65 66 64 61 64 73 79 76 70 65 65 67 69 71 70 68 63 60 54 44 36 33 45 58 67 74 81 86 87 88 88 87 88
70 59 58 60 55 58 72 77 71 68 63 65 64 59 61 74 84 84 73 68 67 68 69 71 69 65 56 52 49 40 35 38 46 54 63 74 85 89 88 88 87 87 87
83 63 50 52 48 45 59 72 81 77 72 64 59 59 51 58 69 73 78 73 69 69 69 68 64 59 49 41 34 38 42 38 42 53 64 74 80 84 86 87 87 87 89
92 68 50 46 49 43 47 62 67 70 73 65 57 52 57 56 70 71 78 78 75 70 65 64 59 47 46 39 33 42 45 43 42 50 62 69 75 80 85 89 89 87 90
88 71 49 40 48 44 43 54 70 66 66 70 59 57 57 59 53 71 74 75 81 69 67 58 51 47 46 43 45 44 45 46 47 46 57 66 72 77 82 86 90 92 90
97 78 56 40 44 41 43 44 56 62 64 71 63 54 56 63 50 58 75 70 72 73 72 59 50 48 45 46 44 44 45 49 47 47 50 60 69 73 78 84 84 85 89
109 100 79 60 47 45 51 49 57 58 55 65 70 61 58 57 58 52 65 71 68 76 72 67 59 52 49 51 46 43 46 45 54 55 55 52 57 67 73 78 80 82 83
119 104 92 87 58 48 54 54 57 61 66 65 66 67 64 61 60 61 54 73 69 67 86 80 67 58 49 50 46 38 38 45 48 49 48 51 51 56 65 74 79 81 85
128 112 100 87 70 52 55 62 60 63 72 74 66 62 57 59 66 72 59 60 72 69 83 93 89 75 56 49 42 31 29 38 44 47 52 52 49 53 57 64 71 80 85
139 127 119 105 95 74 60 61 67 67 70 69 64 58 51 52 62 82 71 54 79 78 84 90 89 96 84 55 39 33 27 25 25 45 54 59 61 63 58 59 62 71 81
133 131 130 116 101 92 86 86 80 69 65 69 68 58 57 54 59 78 80 67 73 88 83 100 104 89 97 89 51 34 21 11 17 28 54 66 68 71 61 53 51 51 80
138 141 145 138 131 124 128 149 144 128 94 79 75 73 68 63 66 77 85 94 83 94 94 101 107 105 95 99 74 39 10 5 27 2 39 90 75 72 78 66 51 38 26
162 163 156 147 147 144 146 164 158 138 124 113 96 83 74 72 73 79 87 106 107 101 94 89 107 111 126 130 122 117 60 350 354 345 9 71 92 67 76 77 76 79 22
167 174 168 160 156 158 141 121 94 101 107 98 107 98 78 75 79 80 95 103 113 119 128 118 112 125 157 203 111 138 156 202 303 309 300 356 47 43 2 336 295 261 243
172 167 166 160 160 163 148 151 155 173 178 184 172 147 112 98 94 89 105 108 119 122 128 141 109 115 150 175 244 335 257 158 167 270 308 310 334 314 283 279 260 246 229
157 155 160 152 156 164 165 175 185 176 187 156 147 149 143 135 129 122 118 114 122 128 135 136 128 135 149 185 195 285 324 348 330 181 243 278 301 276 269 266 256 243 229
143 146 154 162 167 164 168 181 184 184 188 167 167 178 174 163 163 160 149 131 133 131 145 158 176 182 195 204 220 216 203 190 202 203 227 246 272 280 286 266 240 238 236